TimeCST,TemperatureF,Dew PointF,Humidity,Sea Level PressureIn,VisibilityMPH,Wind Direction,Wind SpeedMPH,Gust SpeedMPH,PrecipitationIn,Events,Conditions,WindDirDegrees,DateUTC
12:54 AM,10.0,3.0,73,30.12,10.0,ESE,3.5,-,N/A,,Overcast,120,2012-01-30 06:54:00
1:54 AM,12.0,3.9,70,30.09,10.0,ESE,5.8,-,N/A,,Overcast,120,2012-01-30 07:54:00
2:54 AM,12.9,5.0,71,30.06,10.0,ESE,6.9,-,N/A,,Overcast,110,2012-01-30 08:54:00
3:54 AM,15.1,7.0,70,30.01,6.0,ESE,8.1,-,0.00,Snow,Light Snow,120,2012-01-30 09:54:00
4:46 AM,15.8,8.6,73,29.91,2.5,ESE,9.2,-,0.00,Snow,Light Snow,110,2012-01-30 10:46:00
4:54 AM,15.1,8.1,74,29.97,1.8,ESE,11.5,-,0.00,Snow,Light Snow,110,2012-01-30 10:54:00
5:00 AM,15.8,8.6,73,29.89,3.0,ESE,10.4,-,0.00,Snow,Light Snow,110,2012-01-30 11:00:00
5:08 AM,15.8,8.6,73,29.89,7.0,ESE,11.5,-,0.00,Snow,Light Snow,120,2012-01-30 11:08:00
5:54 AM,16.0,10.0,77,29.93,10.0,SE,12.7,-,0.00,,Overcast,130,2012-01-30 11:54:00
6:54 AM,18.0,10.9,74,29.92,10.0,SE,13.8,-,N/A,,Overcast,130,2012-01-30 12:54:00
7:54 AM,19.0,12.0,74,29.91,10.0,ESE,9.2,-,N/A,,Overcast,120,2012-01-30 13:54:00
8:54 AM,19.9,12.0,71,29.89,10.0,ESE,11.5,-,N/A,,Scattered Clouds,120,2012-01-30 14:54:00
10:54 AM,24.1,15.1,69,29.85,10.0,ESE,8.1,-,N/A,,Clear,120,2012-01-30 16:54:00
12:54 PM,30.0,19.0,64,29.78,10.0,SE,8.1,-,N/A,,Clear,140,2012-01-30 18:54:00
2:54 PM,33.1,21.0,61,29.76,10.0,SSE,6.9,-,N/A,,Clear,160,2012-01-30 20:54:00
3:54 PM,33.1,21.0,61,29.76,10.0,ESE,4.6,-,N/A,,Clear,120,2012-01-30 21:54:00
4:54 PM,30.0,21.0,69,29.78,10.0,East,5.8,-,N/A,,Clear,90,2012-01-30 22:54:00
5:54 PM,28.0,19.9,72,29.78,9.0,East,4.6,-,N/A,,Clear,90,2012-01-30 23:54:00
6:54 PM,27.0,19.9,75,29.78,9.0,ENE,4.6,-,N/A,,Clear,70,2012-01-31 00:54:00
7:54 PM,27.0,19.9,75,29.78,8.0,East,3.5,-,N/A,,Clear,80,2012-01-31 01:54:00
8:54 PM,26.1,19.9,78,29.78,8.0,East,3.5,-,N/A,,Clear,90,2012-01-31 02:54:00
9:54 PM,25.0,19.9,81,29.79,7.0,Calm,Calm,-,N/A,,Clear,0,2012-01-31 03:54:00
10:54 PM,25.0,19.0,78,29.76,7.0,ENE,3.5,-,N/A,,Clear,70,2012-01-31 04:54:00
11:54 PM,25.0,19.9,81,29.74,6.0,Calm,Calm,-,N/A,,Haze,0,2012-01-31 05:54:00